Aérodrome :
LOGIN :

S'inscrire | Disclaimer

   EN    FR    IT 

 










Légende :    VFR   VFR Marginal   IFR   IFR Intensif   IFR Très Intensif
Visi : 
Plafond : 
>= 8 km
>= 3000ft
5 à 8 km
1000 à 3000 ft
1500m à 5 km
500 à 1000 ft
800 à 1500m
200 à 500 ft
< 800m
< 200 ft
Symboles :   Orages  Brouillard  Fortes neiges  Fortes précipitations  Vent > 20 kt
SIGMETs :   Divers  Orages  Givrage  Turbulence  Onde Orograph.  Cendres Volcan.







- Altitude de l'aérodrome : 102 ft
- Code IATA : EXT
- Voir les cartes d'approche


EGTE - Exeter

DERNIER METAR :
  • 182150Z 15006KT 9999 FEW015 12/11 Q1009

METARs EXPIRÉS :
  • 182120Z 13006KT 9999 SCT015 12/12 Q1009
  • 182050Z 14006KT 9000 BKN012 13/12 Q1009
  • 182020Z 12006KT 9000 OVC008 12/12 Q1009
  • 181950Z 11004KT 9000 BKN007 12/12 Q1009
  • 181920Z 13002KT 9999 BKN006 11/11 Q1009
  • 181850Z 10004KT 9999 FEW010 12/11 Q1009

TAF TAF EGTE
Valide du 18 à 21h jusqu'au 19 à 01h UTC


181959Z 1821/1901 14004KT 9000 BKN008
BECMG 1821/1824 9999 SCT010
PROB40 1900/1901 6000
Pas de NOTAMs connus pour ce terrain.



MET'MAP, la Météo Aéronautique d'un coup d'oeil ! - Copyright ORBIFLY Décembre 2007 - Disclaimer

ORBIFLY MET'MAP TEAM :

Programmation & Développement : Alexandra Zaïnal
Conception & Développement : Baudouin d'Aumeries
Co-Programmation & Développement : Marc-Olivier Méhu
Soutien technique & logistique : Manuel Goepfert

Contact : metmap@orbifly.com




SOURCES & CREDITS :

   NOAA